| time (UTC) | temp F | wind direction | speed MPH | gust MPH | rain 1hr in | rain 24hr in | rain mn in | humidity % | barometer mb |
| 20260506104514 | 54 | 328 | 7.0 | 17.0 | 0.00 | 0.00 | 0.00 | 55 | 1012.8 |
| 20260506102614 | 54 | 322 | 7.0 | 17.0 | 0.00 | 0.00 | 0.00 | 58 | 1012.9 |
| 20260506100714 | 54 | 342 | 10.0 | 17.0 | 0.00 | 0.00 | 0.00 | 59 | 1012.9 |
| 20260506094815 | 53 | 326 | 2.0 | 17.0 | 0.00 | 0.00 | 0.00 | 59 | 1012.9 |
| 20260506092914 | 52 | 312 | 1.0 | 17.0 | 0.00 | 0.00 | 0.00 | 63 | 1012.9 |
| 20260506091014 | 52 | 327 | 6.0 | 17.0 | 0.00 | 0.00 | 0.00 | 65 | 1013.0 |
| 20260506085114 | 52 | 340 | 3.0 | 17.0 | 0.00 | 0.00 | 0.00 | 66 | 1012.9 |
| 20260506083216 | 50 | 327 | 1.0 | 17.0 | 0.00 | 0.00 | 0.00 | 69 | 1012.9 |
| 20260506081315 | 50 | 329 | 1.0 | 17.0 | 0.00 | 0.00 | 0.00 | 69 | 1012.9 |
| 20260506073514 | 49 | 320 | 5.0 | 17.0 | 0.00 | 0.00 | 0.00 | 72 | 1012.8 |
| 20260506071615 | 49 | 335 | 5.0 | 13.0 | 0.00 | 0.00 | 0.00 | 72 | 1012.8 |
| 20260506061915 | 47 | 325 | 7.0 | 12.0 | 0.00 | 0.00 | 0.00 | 78 | 1012.5 |
| 20260506050314 | 47 | 295 | 0.0 | 10.0 | 0.00 | 0.00 | 0.00 | 77 | 1012.4 |
| 20260506044416 | 47 | 294 | 0.0 | 10.0 | 0.00 | 0.00 | 0.00 | 76 | 1012.4 |
| 20260506042515 | 47 | 333 | 0.0 | 10.0 | 0.00 | 0.00 | 0.00 | 75 | 1012.3 |
| 20260506040616 | 48 | 324 | 0.0 | 10.0 | 0.00 | 0.00 | 0.00 | 75 | 1012.3 |
| 20260506034716 | 48 | 318 | 0.0 | 10.0 | 0.00 | 0.00 | 0.00 | 74 | 1012.2 |
| 20260506032815 | 48 | 321 | 0.0 | 10.0 | 0.00 | 0.00 | 0.00 | 74 | 1012.3 |
| 20260506030915 | 48 | 353 | 0.0 | 10.0 | 0.00 | 0.00 | 0.00 | 74 | 1012.4 |
| 20260506025015 | 49 | 344 | 0.0 | 10.0 | 0.00 | 0.00 | 0.00 | 75 | 1012.4 |
| 20260506023116 | 49 | 314 | 1.0 | 10.0 | 0.00 | 0.00 | 0.00 | 76 | 1012.5 |
| 20260506021215 | 50 | 343 | 6.0 | 8.0 | 0.00 | 0.00 | 0.00 | 76 | 1012.4 |
| 20260506015315 | 50 | 332 | 0.0 | 7.0 | 0.00 | 0.00 | 0.00 | 76 | 1012.7 |
| 20260506013415 | 50 | 346 | 0.0 | 7.0 | 0.00 | 0.00 | 0.00 | 75 | 1012.7 |
| 20260506011514 | 50 | 338 | 0.0 | 7.0 | 0.00 | 0.00 | 0.00 | 75 | 1012.7 |
| 20260506005614 | 50 | 344 | 0.0 | 7.0 | 0.00 | 0.00 | 0.00 | 75 | 1012.8 |
| 20260506003715 | 51 | 0 | 0.0 | 7.0 | 0.00 | 0.00 | 0.00 | 75 | 1012.9 |
| 20260506001815 | 51 | 356 | 0.0 | 7.0 | 0.00 | 0.00 | 0.00 | 74 | 1012.9 |
| 20260505235913 | 51 | 14 | 0.0 | 7.0 | 0.00 | 0.00 | 0.00 | 74 | 1012.9 |
| 20260505234014 | 51 | 330 | 0.0 | 7.0 | 0.00 | 0.00 | 0.00 | 74 | 1012.9 |
| 20260505232115 | 52 | 319 | 0.0 | 7.0 | 0.00 | 0.00 | 0.00 | 73 | 1012.9 |
| 20260505230215 | 52 | 322 | 1.0 | 3.0 | 0.00 | 0.00 | 0.00 | 73 | 1012.9 |
| 20260505224314 | 52 | 343 | 0.0 | 13.0 | 0.00 | 0.00 | 0.00 | 72 | 1012.9 |
| 20260505222413 | 52 | 342 | 0.0 | 13.0 | 0.00 | 0.00 | 0.00 | 74 | 1012.9 |
| 20260505220515 | 53 | 5 | 3.0 | 13.0 | 0.00 | 0.00 | 0.00 | 74 | 1012.8 |
| 20260505214615 | 54 | 354 | 2.0 | 13.0 | 0.00 | 0.00 | 0.00 | 64 | 1012.6 |
| 20260505212715 | 55 | 351 | 1.0 | 13.0 | 0.00 | 0.00 | 0.00 | 64 | 1012.6 |
| 20260505210814 | 55 | 39 | 2.0 | 13.0 | 0.00 | 0.00 | 0.00 | 64 | 1012.7 |
| 20260505204915 | 55 | 23 | 0.0 | 13.0 | 0.00 | 0.00 | 0.00 | 63 | 1012.7 |
| 20260505203013 | 55 | 30 | 0.0 | 13.0 | 0.00 | 0.00 | 0.00 | 63 | 1012.5 |
| 20260505201114 | 56 | 0 | 0.0 | 13.0 | 0.00 | 0.00 | 0.00 | 61 | 1012.4 |
| 20260505195213 | 56 | 0 | 0.0 | 13.0 | 0.00 | 0.00 | 0.00 | 59 | 1012.1 |
| 20260505193314 | 56 | 42 | 0.0 | 13.0 | 0.00 | 0.00 | 0.00 | 58 | 1011.8 |
| 20260505191413 | 57 | 16 | 0.0 | 13.0 | 0.00 | 0.00 | 0.00 | 57 | 1011.6 |
| 20260505185515 | 57 | 98 | 0.0 | 13.0 | 0.00 | 0.00 | 0.00 | 56 | 1011.4 |
| 20260505183615 | 58 | 100 | 2.0 | 13.0 | 0.00 | 0.00 | 0.00 | 55 | 1011.3 |
| 20260505181714 | 58 | 122 | 0.0 | 13.0 | 0.00 | 0.00 | 0.00 | 55 | 1011.3 |
| 20260505180302 | 58 | 69 | 0.0 | 13.0 | 0.00 | 0.00 | 0.00 | 54 | 1011.3 |
| 20260505174400 | 59 | 94 | 0.0 | 13.0 | 0.00 | 0.00 | 0.00 | 54 | 1011.3 |
| 20260505172502 | 59 | 32 | 0.0 | 13.0 | 0.00 | 0.00 | 0.00 | 53 | 1011.2 |
| 20260505170602 | 59 | 33 | 0.0 | 13.0 | 0.00 | 0.00 | 0.00 | 53 | 1011.3 |
| 20260505164700 | 60 | 72 | 1.0 | 13.0 | 0.00 | 0.00 | 0.00 | 52 | 1011.3 |
| 20260505162801 | 60 | 103 | 1.0 | 13.0 | 0.00 | 0.00 | 0.00 | 53 | 1011.3 |
| 20260505160902 | 60 | 116 | 2.0 | 13.0 | 0.00 | 0.00 | 0.00 | 54 | 1011.3 |
| 20260505153101 | 60 | 137 | 0.0 | 13.0 | 0.00 | 0.00 | 0.00 | 59 | 1011.5 |
| 20260505151201 | 61 | 113 | 1.0 | 13.0 | 0.00 | 0.00 | 0.00 | 53 | 1011.6 |
| 20260505124000 | 62 | 65 | 0.0 | 13.0 | 0.00 | 0.00 | 0.00 | 46 | 1011.9 |
| 20260505122100 | 62 | 351 | 0.0 | 13.0 | 0.00 | 0.00 | 0.00 | 46 | 1011.9 |
| 20260505120202 | 62 | 92 | 1.0 | 13.0 | 0.00 | 0.00 | 0.00 | 46 | 1011.9 |
| 20260505114301 | 61 | 90 | 0.0 | 13.0 | 0.00 | 0.00 | 0.00 | 50 | 1012.0 |
| 20260505112401 | 60 | 327 | 0.0 | 13.0 | 0.00 | 0.00 | 0.00 | 54 | 1012.2 |
| 20260505110501 | 59 | 331 | 3.0 | 13.0 | 0.00 | 0.00 | 0.00 | 56 | 1012.3 |